Pocatello, ID

12:03 AM MDT on August 22, 2017 (GMT -0600)
Pocatello Regional

Weather History for KPIH - January, 2013

Change the Weather History Date:

Tuesday, January 22, 2013

  Actual Average Record
Temperature  
Mean Temperature 9 °F 25 °F  
Max Temperature 23 °F 33 °F 49 °F (1994)
Min Temperature -6 °F 16 °F -30 °F (1962)
Degree Days  
Heating Degree Days 56 40  
Month to date heating degree days 1233 900  
Since 1 July heating degree days 3790 3885  
Cooling Degree Days 0 0  
Month to date cooling degree days 0 0  
Year to date cooling degree days 0 0  
Moisture  
Dew Point -1 °F    
Average Humidity 74    
Maximum Humidity 91    
Minimum Humidity 57    
Precipitation  
Precipitation 0.00 in 0.03 in 0.35 in (1972)
Month to date precipitation 0.24 0.74  
Year to date precipitation 0.24 0.74  
Snow  
Snow 0.00 in - - ()
Month to date snowfall 4.3  
Since 1 July snowfall 23.9  
Snow Depth 4.00 in    
Sea Level Pressure  
Sea Level Pressure 30.54 in    
Wind  
Wind Speed 4 mph (NNE)    
Max Wind Speed 14 mph    
Max Gust Speed 16 mph    
Visibility 8 miles    
Events      
T = Trace of Precipitation, MM = Missing Value Source: NWS Daily Summary

Daily Weather History Graph

Daily Weather History Graph

Search for Another Location

Airport or City:

Trip Planner

Search our weather history database for the weather conditions in past years. The results will help you decide how hot, cold, wet, or windy it might be!

Date:

Astronomy

Jan. 22, 2013 Rise Set
Actual Time 7:54 AM MST 5:30 PM MST
Civil Twilight 7:23 AM MST 6:01 PM MST
Nautical Twilight 6:48 AM MST 6:36 PM MST
Astronomical Twilight 6:15 AM MST 7:09 PM MST
Moon 1:55 PM MST 4:19 AM MST
Length of Visible Light 10h 38m
Length of Day
9h 36m
Waxing Gibbous, 83% of the Moon is Illuminated
Jan 22
Waxing Gibbous
Jan 26
Full
Feb 3
Last Quarter
Feb 10
New
Feb 17
First Quarter

Hourly Weather History & Observations

Time (MST) Temp. Windchill Dew Point Humidity Pressure Visibility Wind Dir Wind Speed Gust Speed Precip Events Conditions
12:18 AM -2.2 °F - -5.8 °F 85% 30.37 in 7.0 mi Calm Calm - N/A   Scattered Clouds
12:29 AM -0.4 °F - -4.0 °F 85% 30.37 in 6.0 mi Calm Calm - N/A   Mostly Cloudy
12:46 AM -0.4 °F - -4.0 °F 85% 30.37 in 6.0 mi Calm Calm - N/A   Scattered Clouds
12:53 AM -0.0 °F - -5.1 °F 79% 30.59 in 6.0 mi Calm Calm - N/A   Haze
1:53 AM -4.0 °F - -9.0 °F 79% 30.59 in 7.0 mi Calm Calm - N/A   Clear
2:31 AM -2.2 °F -14.2 °F -7.6 °F 78% 30.37 in 6.0 mi ENE 5.8 mph - N/A   Partly Cloudy
2:53 AM -0.9 °F -14.1 °F -6.0 °F 79% 30.60 in 7.0 mi NNE 6.9 mph - N/A   Partly Cloudy
3:37 AM -2.2 °F - -7.6 °F 78% 30.38 in 7.0 mi Calm Calm - N/A   Mostly Cloudy
3:53 AM -2.0 °F - -7.1 °F 79% 30.58 in 7.0 mi Calm Calm - N/A   Mostly Cloudy
4:01 AM -2.2 °F -14.2 °F -7.6 °F 78% 30.37 in 7.0 mi NE 5.8 mph - N/A   Scattered Clouds
4:53 AM -2.0 °F - -6.0 °F 83% 30.58 in 7.0 mi Calm Calm - N/A   Clear
5:53 AM -2.0 °F -12.2 °F -6.0 °F 83% 30.61 in 8.0 mi NE 4.6 mph - N/A   Partly Cloudy
6:53 AM -4.0 °F -12.4 °F -9.0 °F 79% 30.63 in 9.0 mi NNE 3.5 mph - N/A   Scattered Clouds
7:53 AM -5.1 °F - -9.0 °F 83% 30.64 in 9.0 mi Calm Calm - N/A   Partly Cloudy
8:53 AM -5.1 °F - -9.0 °F 83% 30.66 in 8.0 mi Calm Calm - N/A   Scattered Clouds
9:53 AM 5.0 °F -6.9 °F -0.0 °F 80% 30.63 in 10.0 mi NNE 6.9 mph - N/A   Clear
10:53 AM 9.0 °F -2.2 °F 3.0 °F 77% 30.64 in 10.0 mi NNE 6.9 mph - N/A   Partly Cloudy
11:53 AM 14.0 °F 3.9 °F 5.0 °F 67% 30.61 in 10.0 mi NNE 6.9 mph - N/A   Clear
12:53 PM 18.0 °F 6.9 °F 6.1 °F 60% 30.58 in 10.0 mi NNE 9.2 mph - N/A   Clear
1:53 PM 18.0 °F 6.9 °F 7.0 °F 62% 30.58 in 10.0 mi NE 9.2 mph - N/A   Clear
2:53 PM 21.9 °F 14.5 °F 9.0 °F 58% 30.53 in 10.0 mi NNE 5.8 mph - N/A   Clear
3:53 PM 21.0 °F 13.4 °F 10.0 °F 63% 30.53 in 10.0 mi NNE 5.8 mph - N/A   Clear
4:53 PM 19.0 °F 12.3 °F 8.1 °F 62% 30.53 in 10.0 mi NNE 4.6 mph - N/A   Clear
5:53 PM 14.0 °F - 6.1 °F 71% 30.55 in 10.0 mi Calm Calm - N/A   Clear
6:53 PM 10.0 °F - 5.0 °F 80% 30.57 in 10.0 mi Calm Calm - N/A   Clear
7:53 PM 5.0 °F - 1.0 °F 84% 30.58 in 8.0 mi Calm Calm - N/A   Clear
8:53 PM 7.0 °F - 3.0 °F 84% 30.58 in 8.0 mi Calm Calm - N/A   Clear
9:27 PM 3.2 °F - -0.4 °F 85% 30.30 in 7.0 mi Calm Calm - N/A   Partly Cloudy
9:53 PM 3.0 °F - -0.9 °F 84% 30.55 in 8.0 mi Calm Calm - N/A   Clear
10:53 PM 3.9 °F -6.9 °F 1.0 °F 88% 30.53 in 7.0 mi NNE 5.8 mph - N/A   Clear
11:53 PM 5.0 °F -9.1 °F 1.0 °F 84% 30.50 in 8.0 mi NE 9.2 mph - N/A   Clear